Disclaimer

Please do not use the information listed here in-flight or in-navigation, as they are not provided to us by the airports but are provided by volunteers, so they might be outdated.

Search


Regions


Airport information page

Radio informations:
Tower (TWR) - 118.1 MHz
BALIKPAPAN INFO - 3416 MHz
Automatic Terminal Information Service (ATIS) - 127.6 MHz
BALIKPAPAN APP - 120.4 MHz

Airport informations:
Latitude: 01° 16' 05.78" S
Longitude: 116° 53' 40.12" E
Elevation: 12 feet - 4 meters
Operating hours: Remarks
Operating agency: Civil government, landing fees and diplomatic clearance may be required
Timezone: UTC+8
Fuel: Jet A1, without icing nhibitor.

Runway information:
07/25 - 8185 x 148 feet< - >2495 x 45 meters

Recent METARs:
WALL 170830Z 07009KT 9999 FEW020 BKN100 28/25 Q1007
WALL 170900Z 09008KT 050V130 9999 FEW020 BKN100 28/25 Q1007
WALL 170930Z 08007KT 050V120 9999 FEW020 BKN100 28/25 Q1007

Airport on the map: